TimeEST,TemperatureF,Dew PointF,Humidity,Sea Level PressureIn,VisibilityMPH,Wind Direction,Wind SpeedMPH,Gust SpeedMPH,PrecipitationIn,Events,Conditions,WindDirDegrees,DateUTC
12:53 AM,69.1,66.9,93,29.87,10.0,West,4.6,-,N/A,,Overcast,280,2012-11-07 05:53:00
1:53 AM,70.0,66.9,90,29.86,10.0,WSW,4.6,-,N/A,,Overcast,250,2012-11-07 06:53:00
2:53 AM,69.1,66.9,93,29.86,10.0,WNW,4.6,-,N/A,,Overcast,300,2012-11-07 07:53:00
3:53 AM,69.1,64.9,87,29.86,10.0,NW,8.1,-,N/A,,Mostly Cloudy,310,2012-11-07 08:53:00
4:53 AM,66.9,61.0,81,29.88,10.0,NNW,8.1,-,N/A,,Partly Cloudy,340,2012-11-07 09:53:00
5:53 AM,64.9,57.0,75,29.90,10.0,NNW,8.1,-,N/A,,Mostly Cloudy,340,2012-11-07 10:53:00
6:53 AM,64.9,55.9,73,29.91,10.0,North,5.8,-,N/A,,Mostly Cloudy,350,2012-11-07 11:53:00
7:53 AM,66.9,55.9,68,29.94,10.0,NNW,6.9,-,N/A,,Mostly Cloudy,340,2012-11-07 12:53:00
8:53 AM,70.0,55.0,59,29.96,10.0,NNW,12.7,-,N/A,,Scattered Clouds,340,2012-11-07 13:53:00
9:53 AM,70.0,55.9,61,29.96,10.0,NNW,15.0,-,N/A,,Clear,340,2012-11-07 14:53:00
10:53 AM,72.0,55.9,57,29.96,10.0,NW,12.7,-,N/A,,Clear,320,2012-11-07 15:53:00
11:53 AM,72.0,55.9,57,29.93,10.0,NW,12.7,-,N/A,,Clear,320,2012-11-07 16:53:00
12:53 PM,73.9,55.9,53,29.90,10.0,NW,10.4,-,N/A,,Clear,310,2012-11-07 17:53:00
1:53 PM,75.9,57.0,52,29.88,10.0,NNW,13.8,21.9,N/A,,Scattered Clouds,330,2012-11-07 18:53:00
2:53 PM,75.0,57.0,53,29.88,10.0,NNW,16.1,21.9,N/A,,Scattered Clouds,330,2012-11-07 19:53:00
3:53 PM,73.9,55.9,53,29.87,10.0,WNW,13.8,-,N/A,,Partly Cloudy,300,2012-11-07 20:53:00
4:53 PM,72.0,55.0,55,29.88,10.0,NW,11.5,-,N/A,,Clear,310,2012-11-07 21:53:00
5:53 PM,69.8,51.8,53,29.90,10.0,WNW,11.5,-,N/A,,Clear,300,2012-11-07 22:53:00
6:53 PM,66.9,54.0,63,29.93,10.0,WNW,10.4,-,N/A,,Clear,300,2012-11-07 23:53:00
7:53 PM,64.9,53.1,65,29.95,10.0,NW,9.2,-,N/A,,Clear,310,2012-11-08 00:53:00
8:53 PM,63.0,51.1,65,29.98,10.0,NW,9.2,-,N/A,,Clear,310,2012-11-08 01:53:00
9:53 PM,63.0,48.9,60,29.99,10.0,NNW,12.7,-,N/A,,Clear,340,2012-11-08 02:53:00
10:53 PM,62.1,48.9,62,30.00,10.0,NNW,10.4,-,N/A,,Clear,340,2012-11-08 03:53:00
11:53 PM,60.1,48.9,67,30.01,10.0,NNW,6.9,-,N/A,,Clear,340,2012-11-08 04:53:00